This is the latest recevied weather packets stored in our database for station/object KM6YFK-13. If no packets are shown the sender has not sent any weather packets the latest 1 day(s).
| Time | Temp. | Humidity | Pressure | Rain* | Wind** | Luminosity | Snow |
|---|---|---|---|---|---|---|---|
| 1778032109 | 22.78° C | 61% | 1016.2 hPa | 0 mm | 0.45 m/s, 188° | 0 W/m² | - |
| 1778031809 | 22.78° C | 61% | 1016.2 hPa | 0 mm | 0.45 m/s, 296° | 0 W/m² | - |
| 1778031510 | 22.78° C | 61% | 1016.1 hPa | 0 mm | 0.45 m/s, 241° | 0 W/m² | - |
| 1778031209 | 22.78° C | 59% | 1016.2 hPa | 0 mm | 0.45 m/s, 271° | 0 W/m² | - |
| 1778030909 | 22.78° C | 59% | 1016.2 hPa | 0 mm | 0.45 m/s, 285° | 0 W/m² | - |
| 1778030610 | 22.78° C | 59% | 1016.2 hPa | 0 mm | 0.45 m/s, 247° | 0 W/m² | - |
| 1778030308 | 22.78° C | 59% | 1016.3 hPa | 0 mm | 0.45 m/s, 246° | 0 W/m² | - |
| 1778030008 | 22.78° C | 60% | 1016.2 hPa | 0 mm | 0.45 m/s, 139° | 0 W/m² | - |
| 1778029707 | 22.78° C | 59% | 1016.2 hPa | 0 mm | 0.45 m/s, 148° | 0 W/m² | - |
| 1778029410 | 22.78° C | 59% | 1016.1 hPa | 0 mm | 0.45 m/s, 179° | 0 W/m² | - |
| 1778029107 | 22.78° C | 59% | 1016.1 hPa | 0 mm | 0.45 m/s, 177° | 0 W/m² | - |
| 1778028810 | 22.78° C | 60% | 1016 hPa | 0 mm | 0.45 m/s, 302° | 0 W/m² | - |
| 1778028507 | 22.78° C | 61% | 1016 hPa | 0 mm | 0.45 m/s, 289° | 0 W/m² | - |
| 1778028210 | 22.78° C | 61% | 1015.8 hPa | 0 mm | 0.45 m/s, 272° | 0 W/m² | - |
| 1778027910 | 22.78° C | 60% | 1015.7 hPa | 0 mm | 0.89 m/s, 267° | 0 W/m² | - |
| 1778027607 | 22.78° C | 59% | 1015.7 hPa | 0 mm | 0.89 m/s, 134° | 0 W/m² | - |
| 1778027308 | 22.78° C | 61% | 1015.6 hPa | 0 mm | 0.45 m/s, 112° | 0 W/m² | - |
| 1778027009 | 22.78° C | 61% | 1015.6 hPa | 0 mm | 0.45 m/s, 154° | 0 W/m² | - |
| 1778026707 | 23.33° C | 60% | 1015.6 hPa | 0 mm | 0.45 m/s, 158° | 0 W/m² | - |
| 1778026408 | 23.33° C | 59% | 1015.6 hPa | 0 mm | 0.45 m/s, 128° | 1 W/m² | - |
| 1778026110 | 23.33° C | 59% | 1015.6 hPa | 0 mm | 0.45 m/s, 126° | 2 W/m² | - |
| 1778025807 | 23.33° C | 58% | 1015.6 hPa | 0 mm | 0.89 m/s, 129° | 3 W/m² | - |
| 1778025508 | 23.33° C | 58% | 1015.5 hPa | 0 mm | 0.45 m/s, 141° | 5 W/m² | - |
| 1778025209 | 23.33° C | 57% | 1015.6 hPa | 0 mm | 0.45 m/s, 138° | 8 W/m² | - |
| 1778024910 | 23.33° C | 55% | 1015.5 hPa | 0 mm | 0.45 m/s, 101° | 11 W/m² | - |
* Rain latest hour (hover to see other rain measurements)
** Current wind speed in m/s (hover to see current wind gust speed)